This demonstration page uses our WeatherBlox Daily Observations layout. Learn more.

Left ArrowRight Arrow

34.02893, -84.19858

Hourly Observations for January 23, 2018

Temp ( °F °C ) Dew Point ( °F °C ) Humidity (%) Winds ( mph kmh ) Pressure ( in mb ) Visibility ( mi km ) Precip ( " mm )
12:53 am 00:53 Cloudy 61 16.1 58 14.4 90 90 SSW 10 17 29.84 1011 10 16 0.00 0.00
1:40 am 01:40 Cloudy 61 16.1 58 14.4 90 90 SW 10 17 29.83 1010 10 16 0.00 0.00
1:53 am 01:53 Cloudy with Light Rain 61 16.1 58 14.4 90 90 SW 13 20 29.83 1010 10 16 0.00 0.03
2:31 am 02:31 Cloudy 60 15.6 57 13.9 90 90 SW 9 15 29.83 1010 10 16 0.00 0.03
2:53 am 02:53 Cloudy 60 15.6 55 12.8 84 84 WSW 12 19 29.84 1011 10 16 0.00 0.03
3:17 am 03:17 Cloudy 58 14.4 50 10 75 75 W 13 20 29.88 1012 10 16 0.00 0.00
3:53 am 03:53 Cloudy 56 13.3 47 8.3 72 72 W 16 26 29.87 1012 10 16 0.00 0.00
4:53 am 04:53 Cloudy 53 11.7 39 3.9 59 59 W 12 19 29.89 1012 10 16 0.00 0.00
5:53 am 05:53 Mostly Clear 49 9.4 33 0.6 55 55 W 10 17 29.92 1013 10 16 0.00 0.00
6:53 am 06:53 Clear 46 7.8 31 -0.6 56 56 WNW 10 17 29.94 1014 10 16 0.00 0.00
7:53 am 07:53 Sunny 43 6.1 30 -1.1 60 60 W 6 9 29.97 1015 10 16 0.00 0.00
8:53 am 08:53 Sunny 45 7.2 30 -1.1 56 56 W 9 15 29.98 1015 10 16 0.00 0.00
9:53 am 09:53 Sunny 46 7.8 30 -1.1 54 54 W 12 19 30.00 1016 10 16 0.00 0.00
10:53 am 10:53 Sunny 47 8.3 29 -1.7 50 50 W 16 26 30.01 1016 10 16 0.00 0.00
11:53 am 11:53 Sunny 50 10 30 -1.1 46 46 WNW 15 24 30.00 1016 10 16 0.00 0.00
12:53 pm 12:53 Sunny 52 11.1 30 -1.1 43 43 WNW 15 24 29.97 1015 10 16 0.00 0.00
1:53 pm 13:53 Sunny 54 12.2 30 -1.1 40 40 W 20 31 29.96 1015 10 16 0.00 0.00
2:53 pm 14:53 Sunny 54 12.2 30 -1.1 40 40 WNW 15 24 29.97 1015 10 16 0.00 0.00
3:53 pm 15:53 Sunny 54 12.2 30 -1.1 40 40 W 16 26 29.98 1015 10 16 0.00 0.00
4:53 pm 16:53 Sunny 53 11.7 29 -1.7 40 40 WNW 14 22 30.01 1016 10 16 0.00 0.00
5:53 pm 17:53 Sunny 50 10 29 -1.7 44 44 WNW 14 22 30.04 1017 10 16 0.00 0.00
6:53 pm 18:53 Clear 49 9.4 30 -1.1 48 48 WNW 8 13 30.08 1019 10 16 0.00 0.00
7:53 pm 19:53 Clear 47 8.3 30 -1.1 52 52 WNW 8 13 30.11 1020 10 16 0.00 0.00
8:53 pm 20:53 Clear 46 7.8 30 -1.1 54 54 NNW 17 28 30.13 1020 10 16 0.00 0.00
9:53 pm 21:53 Clear 43 6.1 29 -1.7 58 58 NW 10 17 30.16 1021 10 16 0.00 0.00
10:53 pm 22:53 Clear 41 5 28 -2.2 60 60 NW 10 17 30.18 1022 10 16 0.00 0.00
11:53 pm 23:53 Clear 40 4.4 27 -2.8 60 60 NW 10 17 30.18 1022 10 16 0.00 0.00

Powered by AerisWeather